Theta_e
287 287 286 287 288 287 286 287 288 288 288 288 288 288 288 287 285 280 279 280 280 282 284 282 284 286 286 286 286 287 287 288 289 286 284 283 283 289 292 293 294 294 294 293 292 292 292 292 292 293 293 294 294 295 295 295 295 295 295 295 296 296 297 298 298 298 298 297 297 298 298 298 298 299
286 286 286 286 286 286 286 286 285 286 288 286 288 288 288 288 287 283 282 282 281 280 283 283 282 284 285 286 286 287 286 289 288 286 284 283 283 289 290 292 293 293 294 293 293 293 292 292 292 292 293 293 294 294 294 295 295 295 295 295 296 296 297 297 297 297 297 297 297 297 297 297 298 298
286 286 286 286 286 286 286 285 285 285 286 286 286 287 287 286 288 285 283 282 281 284 282 283 283 284 284 286 286 286 285 288 287 284 283 283 286 288 289 290 291 292 293 292 293 293 293 292 291 292 292 293 293 294 294 294 294 294 294 295 295 296 296 297 296 296 296 296 296 296 297 297 297 297
286 286 286 286 285 285 285 285 285 285 285 285 285 285 286 285 285 285 283 284 283 283 284 284 283 284 284 284 284 284 284 286 287 283 283 283 287 286 285 289 290 291 292 292 292 293 292 292 292 292 292 292 293 293 293 294 294 293 294 294 295 295 295 295 295 295 295 295 295 295 295 295 296 296
285 285 286 286 285 284 285 286 286 285 285 284 284 285 285 285 284 284 283 283 282 280 281 282 282 283 284 283 284 283 282 283 284 284 282 283 283 283 282 284 288 289 290 291 291 292 292 292 292 292 292 292 292 293 293 293 293 293 293 293 294 294 295 295 294 294 294 294 294 294 295 295 295 295
286 286 285 285 285 284 285 285 285 285 284 284 284 284 284 284 284 284 284 283 282 281 281 280 280 282 284 282 283 283 281 282 282 282 282 282 281 280 279 279 282 287 288 290 290 291 291 291 292 292 292 292 292 293 293 292 292 292 292 292 292 293 293 293 293 293 293 293 293 294 294 294 294 295
285 285 285 285 285 286 285 285 285 284 284 283 283 284 284 284 285 283 284 283 282 281 280 280 281 281 282 282 282 282 283 282 282 281 281 281 281 281 279 279 280 287 289 290 290 290 291 291 291 292 292 292 292 292 292 292 292 292 292 292 292 292 292 292 292 292 292 292 292 293 293 293 294 294
284 284 285 285 285 285 285 285 284 284 284 284 284 284 284 284 285 284 283 284 285 282 280 280 280 281 281 281 281 282 281 280 280 280 280 279 280 280 280 279 280 285 289 289 289 290 290 290 291 291 291 292 292 292 292 292 291 291 291 291 291 291 291 291 291 290 290 290 291 292 292 292 293 293
284 284 284 284 284 284 284 285 284 284 283 284 284 284 284 284 284 284 284 284 284 281 281 280 280 281 281 282 281 282 280 279 279 279 279 279 279 279 279 280 281 285 288 289 289 289 289 289 290 291 291 292 292 292 291 291 291 290 290 290 290 290 290 290 290 289 289 289 289 290 291 292 292 292
285 285 285 284 284 284 284 284 284 284 284 284 284 284 284 283 283 283 283 283 283 283 281 280 279 279 280 279 279 281 281 279 278 278 278 278 278 278 278 279 281 282 283 283 285 287 288 289 289 290 290 291 292 292 291 291 290 290 289 289 289 289 289 289 289 289 289 289 289 290 290 290 290 291
284 285 284 284 284 284 284 284 284 284 284 284 284 284 283 283 283 283 283 282 282 283 282 279 280 280 280 280 279 280 281 280 279 278 277 277 279 279 279 279 280 281 281 284 286 285 285 286 286 288 290 290 291 291 291 290 290 289 289 289 289 289 288 288 288 288 288 288 289 289 289 289 290 290
285 285 285 285 285 285 285 285 284 283 283 283 283 284 283 283 283 283 283 282 282 282 282 280 278 279 279 279 278 280 280 278 277 278 278 277 278 278 279 280 279 280 280 280 281 285 285 285 286 287 288 289 290 290 290 289 289 288 288 288 288 288 288 288 287 288 288 288 288 288 289 289 288 289
285 285 285 285 285 285 286 286 287 286 286 285 284 284 283 283 283 283 283 283 282 282 282 281 279 278 278 278 278 277 278 278 278 279 279 279 279 279 278 279 280 280 279 279 279 280 281 280 280 281 281 283 286 287 288 287 287 287 288 288 288 288 287 287 287 287 288 288 288 288 288 288 288 288
284 285 285 286 286 286 286 286 287 288 288 288 286 285 283 283 283 282 282 283 283 282 282 282 281 277 278 278 278 278 278 279 280 279 278 277 278 278 278 278 279 281 280 278 278 279 281 280 279 279 279 281 283 282 283 283 284 285 286 287 287 286 286 287 287 287 287 288 288 288 288 288 288 288
284 284 285 285 285 285 285 286 287 288 288 288 289 289 288 286 284 282 282 282 283 282 282 282 282 280 279 279 279 278 278 279 279 279 279 278 278 277 276 275 278 280 280 278 277 277 280 280 278 278 279 280 280 281 281 284 285 285 286 286 286 286 287 287 287 287 287 287 287 288 288 287 287 287
284 284 284 284 285 285 285 285 284 285 287 288 288 288 289 289 289 288 284 283 282 282 282 282 282 282 281 280 279 278 278 278 278 279 279 279 278 278 277 278 276 279 281 278 278 277 279 279 278 278 279 280 280 280 282 285 285 285 286 286 286 286 286 287 287 287 287 287 287 287 287 287 287 287
283 283 284 284 284 285 285 285 285 285 284 286 287 288 288 288 289 289 290 288 285 284 283 282 282 282 282 281 279 280 279 280 278 279 278 279 279 279 279 279 278 278 281 279 278 276 278 279 278 277 279 279 280 281 284 285 285 286 287 286 286 286 287 287 287 287 287 286 287 287 287 287 287 286
283 283 283 283 283 284 284 285 285 285 284 284 284 284 284 285 286 287 289 288 288 286 284 284 283 284 284 282 282 281 282 279 278 278 278 279 279 279 279 281 280 280 281 278 278 276 277 279 278 277 278 279 279 279 282 285 285 286 286 286 286 287 286 286 286 286 286 286 286 286 286 286 286 286
283 283 284 283 283 283 284 284 285 284 284 284 283 283 283 283 284 284 285 285 286 286 286 284 284 284 285 284 284 282 282 281 281 281 281 281 280 281 280 278 279 279 280 279 279 274 277 278 277 277 277 278 278 278 282 284 285 286 286 286 286 286 286 286 286 286 286 286 286 286 286 286 286 285
282 282 283 283 283 283 283 285 287 287 285 283 283 282 282 282 283 284 285 287 287 286 286 285 285 285 285 287 284 283 282 282 282 282 281 281 280 278 277 276 276 275 279 279 279 275 275 277 277 276 277 277 276 277 278 283 284 285 285 285 285 286 286 286 286 286 285 285 285 285 285 285 285 285
281 282 282 282 282 283 283 285 287 288 287 284 283 282 282 282 282 282 284 286 288 288 288 289 289 289 290 289 291 289 288 284 283 281 280 279 279 277 276 275 274 274 277 277 279 277 274 276 276 275 275 276 276 276 276 278 283 284 284 284 285 285 285 286 285 285 285 285 285 285 285 285 284 284
280 281 283 283 282 282 282 286 287 288 287 284 283 282 282 281 281 282 283 284 284 287 287 288 288 288 289 289 289 290 289 288 286 280 278 279 279 277 278 275 275 275 276 276 278 275 274 276 275 274 274 275 275 275 276 277 278 282 282 283 284 284 285 285 285 284 284 283 283 283 284 284 283 281
280 280 282 284 284 283 284 287 287 288 287 284 284 283 282 281 281 282 282 282 282 282 283 283 284 284 286 285 285 285 288 288 286 282 281 281 279 278 278 277 275 273 274 277 278 274 273 273 274 274 272 269 272 275 276 277 276 277 277 279 280 283 284 284 283 282 282 282 282 282 283 283 283 279
278 279 280 282 285 287 287 288 288 288 288 285 284 283 281 280 280 282 282 282 282 282 282 282 282 282 283 283 283 283 284 285 284 282 282 282 281 280 279 278 276 275 274 276 278 276 275 275 273 275 274 270 268 272 275 275 276 276 277 277 276 280 280 280 279 280 280 280 280 281 281 282 281 278
278 278 279 279 283 285 286 287 288 288 289 288 285 283 282 282 283 284 280 281 283 281 281 281 281 281 281 282 282 282 282 283 284 283 282 281 281 281 280 278 277 276 275 277 280 277 274 274 273 274 272 272 271 271 272 274 275 276 276 276 275 276 275 275 276 275 277 278 279 279 280 280 281 279
278 278 279 279 281 284 285 286 287 288 288 289 286 284 286 287 287 284 282 281 282 281 280 280 280 280 279 279 280 280 281 282 283 282 282 282 281 281 281 280 278 276 272 277 282 276 274 273 273 272 271 270 269 271 270 270 273 274 275 274 275 274 275 274 275 275 275 275 275 276 276 279 280 281
278 279 279 279 282 284 285 286 286 287 287 287 286 288 288 288 287 286 283 281 280 280 280 279 278 279 279 278 278 279 280 281 282 281 281 281 280 280 279 278 279 279 277 278 279 277 276 273 275 273 271 271 270 270 269 269 270 273 273 273 274 274 275 274 274 274 275 275 275 277 278 279 280 280
279 278 278 280 283 284 285 285 286 286 286 285 287 288 288 288 287 285 283 282 280 279 279 278 278 278 278 278 278 278 279 280 280 280 279 279 278 276 276 276 276 276 277 277 278 276 275 273 273 273 273 271 269 269 267 271 271 272 271 274 273 274 274 275 274 274 275 275 274 274 274 273 275 275
280 281 283 283 283 284 284 285 285 285 286 286 287 287 287 286 285 284 283 282 280 279 278 278 278 278 278 278 279 280 279 278 278 276 276 276 275 274 274 273 274 274 275 275 275 275 274 273 272 272 271 271 270 270 270 269 270 270 271 271 270 272 273 274 274 273 273 274 273 274 273 273 273 275
283 284 284 284 284 284 284 283 282 281 282 285 286 286 286 285 284 284 283 281 280 279 278 278 277 278 278 278 279 278 277 276 275 274 273 272 270 271 270 269 269 270 272 273 274 273 273 273 272 271 270 269 269 269 270 269 268 270 271 271 271 272 272 273 273 273 273 273 273 272 273 273 273 274
277 279 281 282 283 283 283 283 284 283 283 283 283 282 283 283 283 283 283 282 280 279 279 278 278 278 278 278 275 274 274 274 274 274 273 272 270 270 270 269 267 266 268 270 272 272 272 272 272 271 268 268 269 269 271 270 267 269 269 271 271 266 271 272 272 272 273 273 273 272 272 272 273 274
277 278 280 281 281 281 280 281 280 281 281 281 281 280 280 281 283 283 283 283 282 280 280 279 278 277 276 274 274 274 273 273 273 273 272 271 269 269 269 267 265 266 266 267 268 270 271 271 271 271 270 270 267 268 269 268 267 268 268 270 270 270 271 270 271 272 272 272 271 270 271 271 271 272
273 274 275 276 276 276 276 277 277 278 279 279 280 280 280 281 281 282 282 281 280 280 279 278 277 276 275 274 273 272 272 272 271 272 271 271 269 269 269 268 267 264 264 265 265 267 268 270 271 271 270 270 270 269 267 265 267 268 267 268 269 269 270 271 271 271 272 271 269 269 269 271 271 272
273 273 272 273 274 274 274 274 275 276 277 277 278 278 280 280 280 280 281 281 280 279 278 278 277 274 274 273 272 272 271 271 270 271 271 269 269 268 268 268 267 266 265 265 265 265 267 267 268 268 268 268 269 269 269 266 266 267 268 268 268 267 269 270 271 271 271 270 269 267 267 269 271 272
272 272 273 274 274 274 274 274 274 275 276 276 277 277 278 279 279 280 280 280 280 278 277 277 276 274 273 272 272 271 270 269 269 269 269 269 268 268 268 267 266 265 265 265 264 265 266 266 266 265 266 266 265 266 270 269 266 267 268 268 268 268 268 270 270 271 271 270 270 267 267 268 269 271
271 272 272 274 275 276 275 275 275 275 275 276 276 277 277 278 279 279 279 279 279 278 277 275 274 273 273 272 271 271 270 268 268 268 267 267 267 267 268 267 267 266 266 265 265 266 266 265 265 264 263 263 262 262 264 272 271 268 266 265 268 268 268 269 270 270 270 269 270 269 266 265 267 269
270 271 273 273 274 276 276 276 276 276 276 277 277 277 277 277 278 278 279 280 278 277 276 275 273 273 272 272 271 270 269 268 267 267 266 267 267 267 266 266 266 266 266 266 266 266 266 265 265 264 263 262 261 261 263 269 272 273 269 266 266 268 268 268 268 267 269 270 269 269 268 267 267 269
270 271 272 273 274 275 276 276 277 276 277 277 277 278 278 278 278 278 278 277 276 276 275 274 272 272 272 271 270 269 268 268 267 266 266 266 266 266 266 266 265 266 265 266 266 266 266 265 265 264 264 263 263 263 263 266 267 270 273 269 266 267 269 267 266 265 266 268 268 268 269 267 267 269
270 270 271 272 274 275 275 276 277 276 277 277 277 277 277 277 277 276 276 276 276 275 274 273 272 271 271 271 270 269 267 266 266 265 266 266 266 266 266 266 265 265 265 264 265 265 266 265 265 265 265 265 265 264 266 265 264 266 272 275 270 268 267 267 265 266 265 265 266 268 268 269 270 273
270 270 271 272 273 275 275 276 277 277 277 277 277 277 277 276 275 275 275 274 274 274 273 272 271 271 270 270 269 268 267 266 266 266 265 265 266 266 266 266 265 265 264 264 263 264 265 265 266 266 266 267 266 265 265 264 264 266 266 270 275 272 268 268 265 265 264 266 267 266 264 267 265 267
269 270 271 273 274 275 276 276 277 277 277 277 277 277 277 275 274 274 274 273 273 272 272 271 271 270 269 269 268 267 266 266 266 266 266 265 265 265 266 266 264 264 263 263 263 264 264 266 268 270 268 266 266 266 263 262 261 262 264 265 270 272 273 272 269 268 265 267 266 264 263 263 263 264
270 270 270 272 273 275 276 277 277 277 277 277 276 275 274 274 273 274 273 273 272 272 271 270 269 269 268 268 267 267 266 265 265 265 265 265 265 265 265 265 264 264 263 263 263 264 266 268 268 269 267 266 265 263 261 262 262 262 263 264 265 270 272 272 273 273 271 268 264 263 263 263 263 262
271 270 270 271 273 274 276 276 276 276 275 275 275 274 273 272 272 272 271 271 270 270 269 268 268 268 267 267 267 267 266 265 265 265 265 265 265 264 264 264 264 264 264 264 265 266 267 267 267 266 265 265 264 264 262 262 262 262 262 262 263 264 266 270 271 272 272 273 273 270 268 265 263 261
272 272 271 272 272 274 276 276 274 276 275 274 273 272 271 270 270 270 270 269 269 268 268 267 267 267 266 266 267 266 266 266 265 265 264 265 265 265 264 264 264 264 264 265 265 265 266 266 266 265 264 263 263 262 261 262 261 262 262 262 262 261 262 263 265 269 270 271 272 272 272 272 272 272
273 274 275 275 275 274 274 273 273 273 273 272 271 270 270 270 270 269 268 268 268 267 267 266 266 266 266 266 266 265 265 267 266 265 265 265 264 264 264 264 264 264 264 264 264 264 264 264 265 265 264 263 264 263 263 262 262 261 261 261 261 262 262 262 262 262 262 262 267 270 270 271 271 272
Wind_Speed
8 9 8 9 7 6 5 6 7 8 8 8 8 9 12 10 10 7 7 9 9 7 9 8 10 11 9 9 8 10 9 11 15 11 10 10 8 13 18 16 15 15 15 13 13 12 11 10 10 9 9 9 8 8 8 7 6 6 7 7 7 7 7 8 8 7 7 7 7 7 7 7 7 7
7 8 8 8 8 6 6 7 5 6 8 8 8 8 8 10 13 9 10 10 9 6 7 7 6 9 11 10 9 9 9 11 16 10 10 10 9 16 19 17 16 16 15 14 14 14 13 12 11 10 10 10 10 10 10 10 9 9 9 9 8 8 8 8 8 8 7 8 8 8 8 8 7 7
6 8 9 8 9 6 8 8 7 6 6 6 5 7 7 8 10 10 9 8 6 9 10 10 6 10 12 10 9 8 7 10 14 10 9 9 12 18 15 18 17 16 15 15 14 14 14 13 13 12 11 11 11 11 11 10 10 10 10 9 9 9 8 8 8 8 8 8 8 8 8 8 8 7
6 7 8 8 8 7 7 9 8 8 7 6 7 7 6 6 6 7 8 11 8 9 10 10 10 11 12 11 11 10 6 8 16 9 9 10 13 12 9 17 18 16 15 15 15 14 14 14 14 13 13 13 13 12 12 11 11 11 10 10 10 9 8 7 8 9 8 8 8 8 8 8 8 8
6 7 8 8 7 5 8 9 8 8 8 7 7 7 7 8 7 7 8 8 6 1 1 6 8 9 10 9 11 11 9 8 10 10 8 9 9 8 9 8 14 16 15 15 15 15 14 14 14 14 14 14 14 13 13 12 12 11 11 10 9 9 8 9 9 9 8 8 8 8 8 7 8 8
7 6 8 8 7 7 9 9 9 8 7 7 8 8 8 9 9 7 7 8 7 8 1 3 3 7 10 11 10 14 13 11 9 11 9 7 8 8 8 8 8 17 16 16 16 16 15 15 14 14 14 14 14 14 14 13 12 11 10 9 9 9 9 9 9 9 8 8 8 7 7 7 8 8
7 7 7 8 6 6 9 9 8 7 8 7 9 10 8 10 10 7 8 7 8 8 7 6 8 9 10 12 13 13 11 10 11 11 10 10 7 7 8 8 6 15 17 17 16 16 16 15 15 14 15 15 15 15 15 13 12 10 9 9 9 10 9 9 9 9 8 7 6 6 6 7 7 8
7 8 7 7 7 8 10 10 7 7 7 8 8 9 8 9 11 8 7 9 10 7 9 8 10 10 11 8 5 8 6 10 10 11 8 4 7 6 7 8 7 11 19 18 17 17 17 16 16 16 15 15 16 16 15 13 12 10 9 9 8 9 9 10 9 8 7 7 6 6 6 7 7 7
7 7 8 7 6 8 10 10 8 8 9 9 9 10 9 9 8 6 8 10 8 7 10 8 6 7 8 6 7 11 12 8 7 6 9 9 8 6 6 5 6 10 18 17 18 17 18 17 18 17 16 16 16 16 15 13 12 11 10 9 9 9 10 9 9 8 7 7 6 7 7 7 7 7
7 8 8 7 7 8 10 10 8 9 11 10 10 11 10 8 7 8 9 8 9 10 9 8 8 6 9 6 7 12 12 12 10 8 8 5 6 8 8 8 7 6 6 6 9 13 15 18 19 17 16 17 16 15 14 14 12 11 10 10 10 10 10 10 10 9 9 8 7 8 8 8 7 7
6 7 7 7 8 10 10 10 9 8 9 9 11 11 10 9 8 10 10 9 10 11 10 6 9 10 9 9 11 10 11 10 11 13 11 10 8 9 11 9 7 6 7 8 12 10 9 11 10 14 17 17 17 16 15 14 13 11 11 11 11 11 11 11 11 10 9 9 8 9 9 8 8 7
7 7 7 7 8 9 10 10 9 8 9 8 9 9 8 8 10 11 9 9 10 11 11 9 9 8 10 8 2 4 9 9 7 9 11 14 14 13 11 11 11 9 8 8 7 9 10 12 14 16 16 18 17 17 14 15 13 12 11 11 12 12 12 12 11 10 10 10 9 10 9 9 8 7
7 7 7 7 8 9 12 15 13 12 11 9 10 9 6 8 10 9 9 9 10 10 11 10 6 8 9 11 11 12 14 17 18 13 12 12 9 8 8 9 8 9 10 8 7 7 8 8 8 7 7 9 14 13 14 9 12 12 12 12 12 12 12 11 11 11 11 11 11 10 9 8 8 7
8 8 8 8 12 14 15 15 16 17 18 19 14 9 7 9 9 10 10 10 11 11 11 13 10 9 12 13 14 15 15 11 6 11 13 11 9 8 8 5 7 8 10 9 9 9 8 8 7 7 8 6 8 6 6 5 5 9 13 13 13 13 12 12 12 12 12 12 11 10 9 8 7 7
9 8 9 8 10 12 13 13 16 18 19 18 19 19 17 14 11 10 12 12 11 11 12 12 11 13 15 14 13 13 11 11 13 13 13 12 10 12 13 12 5 9 11 10 9 9 9 9 10 8 8 8 7 7 7 10 13 14 14 15 14 14 13 13 14 14 13 12 11 10 9 8 7 7
9 9 9 8 8 9 10 9 9 13 17 18 19 19 20 21 21 19 14 13 11 12 13 13 14 13 15 14 12 11 10 12 10 9 11 13 14 13 12 11 10 9 15 12 10 10 7 9 8 8 9 8 8 8 10 14 14 15 16 16 15 14 14 14 15 14 13 12 10 10 9 9 8 7
10 9 9 9 9 8 13 12 11 10 11 14 18 19 20 21 22 22 23 21 16 11 14 14 15 16 14 11 10 12 12 10 14 13 12 13 12 12 13 13 9 7 16 11 9 9 9 11 10 9 8 8 8 9 13 17 17 17 18 17 16 16 15 15 15 13 12 11 10 10 9 9 8 7
10 10 10 10 10 9 9 9 11 11 10 10 9 10 12 12 16 20 23 23 24 20 15 14 17 16 12 12 10 10 12 15 15 14 14 12 12 12 15 12 8 6 13 16 12 7 9 10 10 10 8 7 7 7 11 17 17 18 19 17 16 16 15 14 13 12 11 10 10 10 10 9 8 8
11 11 11 11 11 11 10 10 11 10 9 9 10 10 11 12 12 12 13 15 15 15 14 16 17 15 12 12 10 10 14 17 15 15 16 16 16 14 3 4 3 6 9 9 8 12 7 8 9 9 8 7 7 6 11 18 18 19 18 17 16 16 15 14 14 13 11 10 10 10 9 9 9 8
10 10 11 11 12 12 11 12 18 16 11 9 11 13 12 12 11 12 14 17 17 15 14 15 16 14 12 12 10 10 13 12 10 7 2 2 3 6 6 9 4 7 8 11 10 4 7 9 11 8 6 7 7 7 7 15 19 18 17 16 16 16 16 16 15 14 12 11 10 9 9 9 9 9
11 11 11 11 11 12 12 13 17 19 18 12 13 13 13 12 12 13 13 14 19 22 22 23 23 22 14 18 12 14 19 15 12 9 9 13 12 11 10 8 6 8 8 8 10 6 6 9 8 6 7 8 8 8 8 6 14 17 16 16 17 17 17 17 16 14 12 10 9 9 8 9 8 9
11 12 18 16 13 13 13 15 18 19 16 13 14 14 14 14 14 14 12 8 10 18 21 23 24 25 21 18 16 16 17 19 16 15 17 13 10 12 13 13 10 5 7 11 9 7 6 7 7 6 3 4 2 5 5 6 7 13 13 16 17 16 17 17 15 12 10 9 8 8 8 8 7 2
11 11 14 20 18 15 15 19 19 21 17 13 13 14 13 14 16 16 12 9 9 10 11 13 14 15 17 15 14 13 19 21 18 17 16 11 14 16 14 9 7 6 10 10 11 10 6 11 7 9 6 4 2 3 6 6 6 6 6 7 10 15 15 13 10 9 8 7 6 6 7 7 6 1
11 11 11 13 19 23 23 23 23 22 22 15 13 12 12 13 17 14 11 9 11 11 12 12 13 14 14 12 12 11 13 15 17 17 14 13 14 15 13 12 13 14 9 9 13 11 5 9 11 10 7 8 7 6 7 7 7 7 8 8 6 10 11 9 6 7 6 5 5 6 7 7 6 1
13 12 12 11 14 21 22 23 23 23 25 23 15 14 13 15 17 14 5 12 18 11 11 11 11 11 11 11 12 13 12 12 12 13 14 13 14 15 14 13 13 12 3 11 21 11 9 11 11 10 6 2 4 7 6 7 7 8 8 8 7 6 5 5 4 4 5 5 5 7 7 7 9 5
14 14 13 12 13 19 21 22 22 24 24 26 17 14 18 21 21 15 10 8 9 10 10 10 10 10 10 11 11 12 12 12 13 12 13 12 12 12 12 14 14 12 5 11 23 12 8 8 12 12 7 5 2 6 8 4 6 6 5 5 5 5 5 4 4 4 4 3 2 4 5 8 9 11
16 14 14 14 18 20 21 22 23 23 25 22 16 21 23 23 23 18 10 9 9 10 10 10 11 11 11 11 11 11 11 11 11 11 11 11 10 9 6 3 5 9 8 14 19 16 11 8 11 15 14 9 9 6 4 7 5 7 5 6 6 5 5 4 5 4 3 4 4 6 7 9 10 12
16 15 16 15 18 21 22 23 24 24 22 15 18 24 25 23 20 12 11 11 11 10 10 11 12 12 11 10 11 11 10 9 9 9 8 8 6 6 4 5 6 7 11 12 13 11 8 7 8 7 9 13 11 12 9 3 3 7 6 5 5 4 4 4 4 3 3 3 3 3 3 3 3 4
17 17 23 23 23 22 23 25 24 21 22 26 25 25 24 21 12 11 10 11 10 11 12 13 12 11 11 12 11 9 8 7 6 6 5 5 5 6 7 7 6 6 7 8 10 9 7 7 9 7 6 7 9 5 7 7 6 5 6 5 2 3 4 4 4 4 4 3 3 3 3 3 3 3
31 28 26 28 27 25 22 17 14 13 12 18 23 23 21 12 11 11 11 10 11 12 13 13 13 12 9 8 8 8 8 9 10 9 9 8 7 8 8 8 6 5 5 5 8 6 5 6 7 7 7 5 5 7 6 7 4 4 5 4 4 2 1 4 4 4 4 4 3 3 4 4 5 3
20 22 24 19 22 21 22 21 16 15 14 13 14 12 12 12 12 12 12 12 13 12 12 11 10 9 7 6 7 9 10 9 8 9 10 10 9 8 7 10 9 7 4 4 4 4 6 5 5 8 10 6 4 5 4 4 5 6 3 4 5 5 2 5 4 5 5 4 3 3 2 3 4 5
14 15 15 19 16 15 14 13 12 12 11 12 12 11 10 11 12 14 15 13 10 11 11 10 8 7 8 9 9 9 9 10 9 9 10 10 10 8 10 9 8 7 6 5 4 4 4 4 5 4 4 6 8 6 4 4 5 5 5 3 4 3 3 3 4 4 4 3 5 4 5 5 5 5
18 15 13 11 12 12 12 11 11 11 12 12 13 13 12 11 11 11 11 12 12 11 10 10 10 10 9 9 9 10 10 10 10 9 9 9 11 9 9 12 11 10 9 6 6 4 3 3 3 4 4 3 5 6 8 6 5 5 6 5 4 4 4 5 5 4 4 5 4 3 3 5 5 5
17 15 15 14 13 13 11 12 12 12 12 12 12 12 14 13 11 11 12 12 11 10 11 11 10 10 10 10 10 11 11 9 9 10 12 10 10 11 10 10 8 4 4 7 6 7 6 4 5 5 6 4 3 1 4 7 6 6 5 4 5 5 5 4 5 5 5 5 4 3 3 5 5 6
16 16 15 15 14 14 13 13 13 12 12 12 11 11 11 11 12 13 11 11 10 10 10 10 10 10 11 11 11 11 11 11 10 9 8 9 11 11 11 11 10 9 7 7 5 6 6 6 6 6 4 2 1 3 4 4 5 6 5 5 5 6 5 4 4 5 5 5 4 4 4 6 6 5
16 15 16 15 13 13 13 13 12 11 10 10 10 10 10 11 11 12 12 11 10 10 10 10 10 11 11 11 12 11 11 11 11 11 11 10 10 9 9 10 10 11 11 9 8 9 7 8 7 8 7 5 5 3 4 14 14 7 7 6 6 6 5 4 5 5 5 4 4 4 5 7 6 6
15 13 14 15 15 13 12 12 11 10 9 9 9 9 10 10 10 10 10 10 9 10 11 10 10 11 11 11 11 11 11 12 12 11 11 10 10 10 10 9 9 9 9 8 8 8 8 7 7 6 7 7 6 8 5 2 18 18 7 8 5 5 5 4 4 4 4 5 4 6 6 7 7 8
13 12 13 13 15 16 14 11 10 10 9 9 9 9 9 10 9 9 8 9 10 10 10 11 11 11 11 12 12 11 10 10 11 11 11 11 11 10 10 11 9 9 9 8 8 9 9 9 9 9 9 10 8 7 6 3 4 11 17 9 7 5 4 4 4 5 4 3 5 6 6 7 8 8
12 13 14 13 14 14 15 13 12 12 10 9 9 9 9 8 7 7 9 10 10 10 10 10 11 12 12 12 12 13 13 12 11 11 11 11 11 12 10 10 10 8 9 9 8 8 8 9 9 10 9 9 10 8 7 7 6 0 10 20 7 5 5 4 4 3 4 5 5 5 6 8 10 17
12 11 13 14 13 13 14 12 11 9 8 8 8 8 9 9 9 9 10 9 10 10 11 11 12 11 10 11 11 10 11 15 14 12 12 11 10 10 11 10 11 11 11 11 7 8 8 9 9 9 8 4 5 6 6 4 3 1 2 5 14 10 5 3 4 3 5 5 5 5 7 5 7 6
12 12 12 11 12 12 13 13 11 9 9 9 9 10 10 8 9 9 9 10 9 10 10 10 11 12 11 11 11 12 12 10 9 10 10 10 10 10 12 11 9 9 12 11 8 8 9 8 6 8 6 6 6 5 5 2 1 1 4 5 6 8 10 10 6 5 6 5 5 6 7 7 8 8
10 10 10 10 11 10 11 11 9 9 9 9 9 8 8 9 9 12 10 12 12 12 11 10 10 10 9 9 10 10 11 12 11 10 10 10 10 9 11 10 10 9 12 11 10 8 6 5 7 7 6 6 5 6 5 6 6 2 2 1 1 7 10 12 14 14 10 6 4 5 5 6 4 9
9 10 11 12 12 12 10 9 9 9 9 8 8 8 8 7 7 9 8 9 8 8 8 8 9 9 9 9 10 10 10 11 11 11 11 11 11 11 11 9 9 9 9 6 5 6 6 7 7 7 6 6 5 5 6 5 3 1 1 2 1 0 2 8 12 15 16 18 16 13 9 8 6 9
9 10 11 12 11 12 12 11 8 7 8 7 7 8 9 9 9 9 9 9 10 9 9 9 9 10 10 10 9 9 9 10 10 11 11 11 10 10 10 9 9 8 8 7 7 7 6 7 6 7 8 7 5 6 6 4 4 4 2 2 1 2 4 3 4 9 13 16 20 21 23 23 22 24
10 9 9 11 11 9 7 7 6 6 6 7 7 8 8 8 9 8 8 8 8 8 9 9 9 9 9 10 10 10 9 11 10 9 9 9 8 8 8 9 9 8 8 8 8 8 6 6 6 5 5 4 5 5 4 4 4 3 3 2 3 3 4 3 5 7 7 7 12 19 22 23 24 25
Wind_Direction
237 244 243 243 246 241 237 231 221 214 209 205 198 190 191 190 201 186 208 220 211 230 191 184 213 192 189 188 190 189 190 185 181 183 179 180 180 192 194 196 194 191 191 195 195 196 199 205 212 223 231 231 234 238 239 237 247 244 240 241 245 247 244 250 255 262 272 280 288 295 297 298 301 307
225 237 242 242 248 246 244 241 233 224 218 212 206 203 204 188 207 191 196 229 196 210 209 196 184 191 191 188 190 194 189 185 183 187 184 179 183 190 195 197 197 196 197 197 198 198 199 202 209 220 228 228 230 229 230 232 235 236 236 240 240 244 246 247 255 264 271 277 284 289 292 295 301 307
225 233 237 237 242 233 243 247 246 246 236 229 218 220 199 204 212 190 191 228 233 179 194 210 193 181 190 184 184 189 179 183 184 188 190 186 178 186 194 196 199 198 199 198 200 201 201 202 207 214 221 225 225 229 231 234 239 242 244 245 245 244 245 249 256 264 269 276 284 289 294 300 304 310
232 240 243 241 239 233 233 242 237 240 242 233 234 231 224 218 206 186 189 216 233 201 196 193 190 180 178 178 179 190 169 182 184 189 194 192 179 183 184 193 195 198 199 198 200 203 203 203 207 212 217 221 223 225 229 233 239 241 244 246 246 246 248 258 263 266 272 278 284 291 295 299 309 316
232 238 242 245 242 233 235 240 238 236 234 234 236 234 231 234 218 190 203 218 231 286 173 167 178 181 161 179 186 180 177 174 187 189 195 192 188 175 176 181 193 198 203 202 201 202 204 205 208 211 216 220 222 223 225 230 235 238 241 246 253 255 258 257 260 264 272 282 286 290 298 309 318 320
235 232 241 244 242 231 236 239 238 235 235 228 231 233 223 232 230 208 202 223 202 213 173 130 128 167 180 180 187 183 179 186 177 188 190 193 184 177 173 181 195 202 203 203 200 202 203 208 209 213 216 218 220 223 224 226 226 230 236 242 249 252 256 259 262 269 274 275 281 296 308 314 314 309
236 239 236 239 232 235 242 240 237 232 233 227 228 232 221 230 231 219 214 210 221 202 210 180 167 178 184 188 188 193 192 180 178 180 190 188 186 183 181 184 184 200 199 198 199 200 203 207 210 214 217 219 221 223 225 225 224 226 232 238 245 247 254 260 263 262 269 280 293 301 303 299 299 299
236 236 242 240 229 229 239 242 235 232 229 231 232 236 229 230 233 221 220 223 226 198 192 203 185 184 177 204 186 186 164 170 183 191 181 167 184 188 188 185 185 194 197 196 196 198 201 205 208 213 217 221 222 223 225 226 225 227 230 236 243 250 255 256 259 268 277 283 286 288 282 282 285 289
237 239 239 240 228 232 242 242 232 229 230 232 233 235 232 232 233 227 221 229 225 202 207 193 205 186 194 185 174 175 168 173 181 183 191 191 185 187 195 190 191 192 200 197 196 197 200 203 206 210 216 221 222 223 225 225 225 226 231 237 243 248 251 254 258 261 262 265 267 269 268 267 272 283
237 242 242 239 234 238 241 245 235 227 228 229 231 235 233 228 224 227 231 226 226 225 221 179 176 196 184 173 190 187 179 171 175 186 193 182 189 182 197 206 197 191 190 189 197 199 200 202 204 209 215 219 222 224 225 226 226 228 232 237 244 248 249 250 251 251 253 253 255 256 260 260 265 272
244 241 242 239 237 242 244 246 239 233 234 229 232 230 229 224 222 225 227 222 225 228 223 200 193 185 200 187 183 191 188 187 184 177 171 195 198 199 198 198 201 192 196 206 201 195 189 192 197 209 213 219 222 224 225 225 226 230 234 239 243 244 245 245 246 248 251 251 254 254 254 257 263 273
255 251 247 244 242 242 245 244 243 232 240 236 240 233 223 217 220 226 225 220 221 226 229 209 196 195 186 200 211 148 169 181 200 196 181 187 192 199 199 201 189 192 185 191 196 202 200 205 207 209 215 218 219 221 223 223 225 229 236 240 241 239 239 240 243 245 246 249 252 252 254 257 265 275
259 257 252 250 247 245 246 245 243 238 234 237 244 237 216 220 221 224 223 221 220 224 223 226 191 187 196 200 177 178 190 194 196 180 185 205 194 182 190 208 198 185 181 184 184 200 195 193 198 192 199 209 214 218 215 216 226 233 238 239 236 235 235 237 239 241 244 247 247 248 251 258 266 276
265 259 258 252 249 250 250 248 247 248 246 243 240 237 215 221 224 222 223 222 221 222 222 224 204 196 209 201 198 194 200 194 164 178 191 193 181 167 205 215 209 185 175 178 192 205 192 186 185 184 195 192 193 184 198 199 200 223 233 232 227 227 227 230 234 238 241 242 245 246 250 256 262 269
266 262 258 259 257 254 254 252 249 248 247 248 248 246 237 226 219 220 224 225 221 220 225 226 220 213 215 209 202 203 189 187 190 189 186 188 174 186 183 204 192 191 180 185 193 204 191 178 190 193 195 189 186 185 192 200 218 224 228 227 220 217 222 229 233 234 235 239 242 247 252 258 264 269
263 262 259 254 251 249 249 248 244 243 245 247 248 247 244 241 235 226 220 223 224 221 226 226 225 224 225 212 193 198 187 191 192 193 192 193 190 190 199 204 196 191 174 186 193 205 175 181 189 195 199 189 189 184 182 199 212 219 217 213 210 218 225 229 231 231 233 237 241 249 257 262 268 275
259 259 258 260 252 248 246 247 247 248 247 243 242 243 244 243 241 240 235 229 225 221 227 228 229 225 227 220 207 200 189 175 189 188 195 200 203 202 205 207 190 150 178 176 193 196 186 177 189 197 195 182 180 179 192 202 209 211 210 208 215 220 224 227 229 229 232 235 243 251 257 263 269 278
260 255 256 256 257 253 248 241 242 243 242 242 239 240 240 241 243 242 241 240 236 229 228 228 234 231 221 224 207 186 172 184 195 193 201 197 198 202 213 209 196 169 173 181 176 189 193 181 177 197 187 169 176 176 191 204 209 211 211 214 218 220 222 224 225 226 229 236 245 251 256 261 267 277
254 256 254 253 255 254 248 244 242 241 240 237 235 235 236 236 237 237 236 237 237 235 233 235 240 239 228 228 214 175 188 196 197 195 196 193 197 200 163 55 109 143 183 179 163 204 178 173 185 197 174 172 176 176 196 206 209 211 213 215 218 220 222 221 221 220 226 235 243 249 255 261 269 277
252 253 250 253 254 252 248 243 243 243 242 238 237 235 235 237 236 237 233 234 233 233 235 238 241 242 235 226 217 183 190 194 191 189 134 97 148 151 177 195 167 175 189 180 182 163 178 186 186 180 159 161 173 181 180 204 206 208 211 216 219 219 218 217 213 214 222 232 240 250 258 267 277 284
251 249 247 246 250 252 250 242 236 237 237 239 240 240 240 238 235 239 236 227 232 237 239 242 244 243 234 232 211 191 187 184 175 165 178 199 183 180 195 201 173 203 176 192 194 162 167 185 174 156 172 172 172 178 182 186 206 208 213 216 216 215 214 210 206 211 222 232 244 254 263 273 280 288
248 244 243 242 242 245 247 243 238 236 233 235 237 240 241 242 241 243 238 223 226 232 237 241 244 246 242 231 223 212 197 187 171 180 200 195 169 193 201 200 192 175 186 200 170 153 192 154 159 143 119 107 174 174 172 176 192 210 218 217 212 210 207 204 204 212 227 243 252 259 269 272 279 266
247 246 244 242 240 238 242 240 236 234 232 233 234 237 237 240 242 242 235 211 212 215 218 231 237 243 243 239 230 225 215 200 193 197 201 174 181 198 206 190 140 176 223 199 169 170 178 155 180 150 134 182 253 173 193 183 185 200 204 206 208 203 197 195 205 225 239 249 256 270 281 284 290 223
252 242 244 241 239 241 241 241 236 233 230 229 232 233 234 236 243 241 232 206 218 217 213 220 220 227 227 228 230 231 224 216 204 205 204 194 192 202 201 193 187 202 196 163 178 183 163 166 173 182 177 142 187 185 175 191 184 192 185 187 173 189 188 200 220 234 242 248 266 284 290 291 296 246
255 252 244 244 236 239 242 245 244 236 232 231 231 229 230 230 237 239 190 212 217 217 218 218 217 221 220 219 220 222 221 221 218 214 212 207 205 204 203 200 199 213 160 176 179 176 175 176 174 167 208 104 134 128 186 164 188 187 185 179 174 188 168 190 193 208 230 252 272 287 291 290 289 283
252 248 250 249 239 236 238 242 242 242 239 234 232 228 229 232 234 233 213 209 210 214 218 218 218 218 216 217 218 220 218 216 214 210 210 209 211 212 205 203 196 203 191 176 177 185 153 177 182 171 174 143 178 131 140 178 202 176 185 180 178 180 171 181 185 192 184 195 211 252 262 270 275 276
251 249 249 247 245 240 238 239 242 243 241 239 235 234 233 232 230 228 224 212 212 215 217 214 217 217 215 216 218 216 218 215 210 209 209 208 206 211 209 212 211 204 160 168 181 186 185 181 178 174 177 173 147 161 152 152 190 180 184 190 182 187 183 185 200 195 195 206 203 253 274 283 283 284
248 248 248 243 239 241 240 242 244 246 243 233 232 237 237 236 232 226 224 218 217 214 215 217 218 220 213 213 214 215 211 210 202 199 197 190 182 146 115 103 98 121 144 168 176 176 173 162 174 187 169 163 161 167 178 178 131 165 165 173 153 167 169 176 195 205 204 206 210 214 200 229 245 271
247 244 245 242 241 239 239 240 242 245 246 243 239 237 236 234 231 227 221 220 213 215 215 218 221 220 214 210 211 204 192 175 154 147 150 149 118 102 90 76 79 104 130 146 154 142 139 166 165 153 145 171 159 160 144 168 157 173 168 155 159 191 182 197 199 225 232 224 229 211 200 212 255 254
258 250 245 244 243 241 239 239 240 242 237 239 241 240 237 230 226 224 223 214 214 216 217 217 217 218 211 202 194 171 151 160 172 163 154 142 134 132 126 106 78 58 67 108 135 122 123 124 139 143 131 128 148 151 156 134 140 157 150 153 147 76 205 201 205 208 212 231 228 232 240 227 235 245
276 269 263 253 250 249 243 238 231 234 236 236 237 233 230 229 225 223 221 216 213 216 219 218 214 211 196 165 144 159 167 169 167 165 162 158 157 146 143 131 116 100 69 52 54 103 123 122 129 141 142 141 121 151 135 124 134 145 170 164 162 178 195 148 205 203 215 223 217 211 217 240 251 244
264 256 253 253 253 251 246 243 238 237 232 229 227 226 222 223 223 224 221 221 218 216 216 215 202 185 173 174 174 164 166 170 165 162 163 162 158 155 143 138 151 123 110 86 66 67 82 123 127 133 126 152 156 165 124 129 163 169 175 169 185 206 204 191 204 216 222 236 248 242 232 228 235 233
280 281 271 256 250 242 240 238 235 233 231 228 224 222 220 220 219 218 214 216 215 211 206 204 197 190 176 175 168 167 167 171 165 165 161 166 158 164 170 171 163 159 156 151 132 108 100 64 102 117 142 140 150 155 152 165 188 183 187 192 182 204 211 222 214 219 222 225 238 242 249 238 233 248
274 267 259 252 246 243 238 235 232 229 226 226 222 222 222 221 216 215 215 214 215 203 202 199 192 179 177 173 171 172 173 163 162 168 165 164 160 163 176 174 167 145 121 145 153 154 146 124 102 71 68 54 37 118 176 169 178 183 191 173 193 207 220 204 223 222 224 225 228 246 256 257 249 251
267 271 262 252 241 239 237 234 233 228 228 224 222 220 217 218 217 217 213 212 206 200 195 194 186 177 175 174 172 172 169 165 160 161 164 163 168 174 172 172 167 165 153 149 143 161 145 155 139 121 107 90 111 315 237 196 160 186 174 199 199 212 211 211 208 222 225 237 235 249 263 265 261 248
263 256 263 267 258 240 231 229 229 229 229 228 223 220 218 217 214 213 212 206 198 193 190 185 179 178 178 175 171 170 165 162 166 164 165 168 174 173 176 178 172 169 173 171 158 166 156 163 159 156 152 157 155 192 275 214 200 185 181 195 201 204 208 201 217 218 231 230 239 245 255 266 267 264
272 265 258 256 262 258 241 232 226 225 227 230 229 219 219 218 215 214 214 200 190 188 187 178 179 176 174 171 168 169 164 166 168 169 169 171 172 172 171 176 168 165 166 170 162 161 162 161 165 155 150 152 162 203 212 119 200 201 170 197 195 194 191 200 194 208 224 231 243 239 248 261 268 269
266 269 267 259 251 253 255 246 232 221 221 221 228 226 222 221 214 208 192 185 189 185 178 177 176 174 173 169 168 169 168 171 166 168 173 170 170 177 176 169 162 163 162 160 160 168 168 169 173 180 176 177 177 186 193 206 120 206 203 193 192 190 181 178 201 219 233 229 239 248 257 256 259 265
263 262 265 263 260 251 247 242 232 223 212 211 216 222 222 217 205 190 185 189 186 180 177 174 175 176 174 173 172 168 166 166 170 172 171 175 175 171 168 167 161 161 155 159 161 164 166 175 179 181 186 185 188 190 173 160 183 247 203 197 171 171 194 184 213 238 239 250 254 256 256 262 271 272
257 255 257 264 270 264 251 241 231 217 205 201 207 216 218 210 193 188 186 184 180 180 176 175 170 169 175 174 171 169 170 171 170 169 171 173 174 173 171 169 167 162 154 155 156 170 174 181 186 184 188 158 80 95 91 114 79 30 3 225 211 205 193 160 204 220 256 249 262 273 269 268 267 265
248 253 252 251 258 261 260 245 228 213 205 201 202 214 215 197 187 185 183 179 174 171 172 170 169 172 174 169 168 163 163 164 163 165 166 166 168 168 168 162 158 164 158 168 158 173 184 187 163 161 110 105 116 88 61 62 210 203 197 254 292 266 250 243 227 211 238 250 252 252 265 268 278 280
243 251 255 255 260 268 267 248 216 203 198 197 196 189 192 188 189 179 175 177 171 173 169 168 167 163 161 160 160 160 161 164 162 163 163 162 161 162 164 161 162 162 164 171 175 177 157 137 145 163 123 133 123 144 186 198 212 164 160 139 241 259 255 249 245 246 245 234 221 255 269 278 258 270
243 241 250 252 256 262 260 236 212 192 188 184 184 175 170 172 168 170 160 163 162 161 160 156 154 154 157 157 162 162 159 159 160 160 159 162 161 160 164 168 167 165 168 152 125 137 142 146 156 149 152 144 168 156 193 193 197 167 153 143 213 3 292 262 267 265 262 262 263 265 261 265 279 272
242 239 240 244 246 247 241 226 206 193 175 170 163 160 164 161 170 170 164 161 161 161 155 153 153 153 154 155 153 154 157 156 155 156 159 161 161 161 159 157 153 148 148 146 135 143 141 145 153 149 153 168 163 166 193 171 200 204 209 194 175 186 233 245 262 265 269 270 271 272 272 270 267 268
301 276 250 238 236 226 212 198 178 160 144 144 156 167 169 167 161 154 154 153 150 147 147 148 149 149 148 150 151 152 151 155 151 146 146 145 145 145 146 150 147 146 149 152 143 145 142 137 142 139 153 156 159 173 177 179 197 180 204 196 223 223 229 226 245 254 249 254 246 256 266 269 271 273